loading
|

THOR ABLESTAR DEB, 753

Orbit data source: Space-Track

THOR ABLESTAR DEB, 753 is space debris in LEO originally from a launch on Thu, 05 Dec 1963 UTC launched from the Air Force Western Test Range (AFWTR). Debris objects in space refer to the collection of defunct objects orbiting the Earth. Examples of debris include non-operational satellites, rocket bodies, and fragments generated from explosions, collisions, or faulty payload assembly.

Loading next visibility...
Loading greatness...
THOR ABLESTAR DEB details
Identifier
753, 1963-049F
Orbit
LEO
Last TLE update8 hours ago
Origin
Flag of USUSN BuWeps (US)
ManufacturerUnknown
Mission statusUnknown
MissionUnknown
Bus & MotorUnknown
MassUnknown
Launch date (UTC)
1963-12-05 (61 years ago)
Launch vehicleUnknown
Launch site
Air Force Western Test Range (AFWTR)
Object type
Payload
Rocket body
Debris
Radar Cross SectionSmall (<0.1 m²)

Expand to show TLE details & history

TLE from 8 hours ago
0 THOR ABLESTAR DEB
1   753U 63049F   24258.98952094  .00000693  00000-0  99930-3 0  9995
2   753  89.9067  78.4316 0025059 265.1328 249.4623 13.54478710994320
Epoch: 2024-09-14T23:44Z
Definitive object data (Epoch: 2024-09-14T23:44:54.609Z)
Latitude25.70256°
Longitude-92.27994°
Altitude1,065.581 km
Speed7.318 km/s
True Right ascension17h 13m 32s
True Declination25° 34' 26"
Sunlit
Object was in daylight at TLE epoch
Predictive object data (real-time)
Latitude-32.86501°
Longitude87.70164°
Altitude1,059.796 km
Speed7.325 km/s
Apparent Right ascension08h 09m 42s
Apparent Declination-50° 09' 01"
Sunlit
Object is in daylight
Predictive observer data (real-time)
Local Sidereal Time00:19:59
Azimuth125.081° SE
Elevation-45.973°
Doppler factor1
Orbital elements
Apogee1,071.49 km
Perigee1,034.248 km
Semi-major axis7,431.006 km
Eccentricity0.0025059
Inclination89.9067°
RAAN78.4316°
Arg. of periapsis265.1328°
True anomaly249.19369°
Mean anomaly249.4623°
Eccentric anomaly249.32797°
Mean motion3.38822 °/min
BSTAR0.0009993
Period106.25 mins
No data available

THOR ABLESTAR DEB Visibility forecast

Observer location: 39.9160978°, -105.1181434

THOR ABLESTAR DEB is not visible in the next 10 days
Span
Click to sort rows by Start time (UTC) header in descending order
Start Az.
Max El. time (UTC)
Max El. Az.
Max El.
End time (UTC)
End Az.